Location: Lafig�re
(44.4503°N, 4.0357°E)
Time: 17:37:49
(UTC+00:00)

S-56A Canister/Altair - Pass Details

Date: 29 January 2021
Orbit: 631 x 2501 km, 38.9° (Epoch: 04 March)

Event Time Altitude Azimuth Distance (km) Brightness Sun altitude
Rises 04:26:27 0° 268° (W) 2,929 - -28.5°
Reaches altitude 10° 04:28:55 10° 257° (WSW) 2,006 - -28.0°
Maximum altitude 04:32:46 29° 196° (SSW) 1,200 - -27.3°
Exits shadow 04:33:54 26° 171° (S) 1,319 8.7 -27.1°
Drops below altitude 10° 04:37:08 10° 136° (SE) 2,278 10.5 -26.5°
Sets 04:40:07 0° 126° (SE) 3,410 11.7 -26.0°
